Weather History for Inverness, FL

Change the Weather History Date:

Friday, January 25, 2013

  Actual Average (KOCF) Record (KOCF)
Temperature  
Mean Temperature 60 °F -  
Max Temperature 75 °F 67 °F 80 °F (2002)
Min Temperature 44 °F 42 °F 21 °F (2003)
Degree Days  
Heating Degree Days 6    
Growing Degree Days 10 (Base 50)    
Moisture  
Dew Point 47 °F    
Average Humidity 77    
Maximum Humidity 100    
Minimum Humidity 34    
Precipitation  
Precipitation 0.00 in - - ()
Sea Level Pressure  
Sea Level Pressure 30.27 in    
Wind  
Wind Speed 1 mph (South)    
Max Wind Speed 8 mph    
Max Gust Speed -    
Visibility 6 miles    
Events Fog    
Averages and records for this station are not official NWS values.
T = Trace of Precipitation, MM = Missing Value Source: NWS Daily Summary

Daily Weather History Graph

Daily Weather History Graph

Search for Another Location

Airport:

Trip Planner

Search our weather history database for the weather conditions in past years. The results will help you decide how hot, cold, wet, or windy it might be!

Date:

Astronomy

Jan. 25, 2013 Rise Set
Actual Time 7:20 AM EST 6:02 PM EST
Civil Twilight 6:55 AM EST 6:27 PM EST
Nautical Twilight 6:27 AM EST 6:56 PM EST
Astronomical Twilight 5:59 AM EST 7:24 PM EST
Moon 4:58 PM EST (1/25) 5:58 AM EST (1/25)
Length of Visible Light 11h 32m
Length of Day
10h 42m
Waxing Gibbous, 98% of the Moon is Illuminated
Jan 25
Waxing Gibbous
Jan 26
Full
Feb 3
Last Quarter
Feb 10
New
Feb 17
First Quarter

Hourly Weather History & Observations

Time (EST) Temp. Dew Point Humidity Pressure Visibility Wind Dir Wind Speed Gust Speed Precip Events Conditions
12:15 AM 46.4 °F 46.4 °F 100% 30.32 in 7.0 mi Calm Calm - N/A   Overcast
12:35 AM 48.2 °F 48.2 °F 100% 30.31 in 10.0 mi Calm Calm - N/A   Overcast
12:55 AM 48.2 °F 46.4 °F 93% 30.30 in 10.0 mi Calm Calm - N/A   Scattered Clouds
1:15 AM 48.2 °F 46.4 °F 93% 30.31 in 7.0 mi Calm Calm - N/A   Clear
1:35 AM 46.4 °F 46.4 °F 100% 30.31 in 5.0 mi Calm Calm - N/A   Clear
1:55 AM 46.4 °F 46.4 °F 100% 30.31 in 1.2 mi Calm Calm - N/A   Mist
2:15 AM 44.6 °F 44.6 °F 100% 30.29 in 7.0 mi Calm Calm - N/A   Scattered Clouds
2:35 AM 44.6 °F 44.6 °F 100% 30.29 in 0.8 mi Calm Calm - N/A   Overcast
2:55 AM 44.6 °F 44.6 °F 100% 30.29 in 1.8 mi Calm Calm - N/A   Overcast
3:15 AM 46.4 °F 46.4 °F 100% 30.28 in 0.2 mi Calm Calm - N/A Fog Fog
3:35 AM 44.6 °F 44.6 °F 100% 30.28 in 0.2 mi Calm Calm - N/A Fog Fog
3:55 AM 46.4 °F 46.4 °F 100% 30.28 in 0.2 mi Calm Calm - N/A Fog Fog
4:15 AM 46.4 °F 46.4 °F 100% 30.29 in 0.2 mi Calm Calm - N/A Fog Fog
4:35 AM 46.4 °F 46.4 °F 100% 30.29 in 0.2 mi Calm Calm - N/A Fog Fog
4:55 AM 46.4 °F 46.4 °F 100% 30.29 in 0.2 mi Calm Calm - N/A Fog Fog
5:15 AM 46.4 °F 46.4 °F 100% 30.29 in 0.2 mi Calm Calm - N/A Fog Fog
5:35 AM 46.4 °F 46.4 °F 100% 30.30 in 0.2 mi Calm Calm - N/A Fog Fog
5:55 AM 46.4 °F 46.4 °F 100% 30.31 in 0.2 mi Calm Calm - N/A Fog Fog
6:15 AM 44.6 °F 44.6 °F 100% 30.31 in 1.2 mi Calm Calm - N/A   Overcast
6:35 AM 44.6 °F 44.6 °F 100% 30.32 in 0.2 mi Calm Calm - N/A Fog Fog
6:55 AM 44.6 °F 44.6 °F 100% 30.32 in 0.2 mi Calm Calm - N/A Fog Fog
7:15 AM 44.6 °F 44.6 °F 100% 30.32 in 0.2 mi Calm Calm - N/A Fog Fog
7:35 AM 44.6 °F 44.6 °F 100% 30.32 in 0.2 mi Calm Calm - N/A Fog Fog
7:55 AM 44.6 °F 44.6 °F 100% 30.32 in 0.8 mi Calm Calm - N/A   Mostly Cloudy
8:15 AM 46.4 °F 46.4 °F 100% 30.33 in 4.0 mi Calm Calm - N/A   Scattered Clouds
8:35 AM 48.2 °F 48.2 °F 100% 30.33 in 7.0 mi Calm Calm - N/A   Clear
8:55 AM 51.8 °F 51.8 °F 100% 30.33 in 7.0 mi Calm Calm - N/A   Clear
9:15 AM 53.6 °F 53.6 °F 100% 30.33 in 10.0 mi Calm Calm - N/A   Clear
9:35 AM 55.4 °F 55.4 °F 100% 30.33 in 10.0 mi NNE 3.5 mph - N/A   Clear
9:55 AM 59.0 °F 57.2 °F 94% 30.34 in 10.0 mi Calm Calm - N/A   Clear
10:15 AM 59.0 °F 57.2 °F 94% 30.34 in 10.0 mi Calm Calm - N/A   Clear
10:35 AM 64.4 °F 55.4 °F 73% 30.34 in 10.0 mi East 3.5 mph - N/A   Clear
10:55 AM 66.2 °F 53.6 °F 64% 30.34 in 10.0 mi Calm Calm - N/A   Clear
11:15 AM 68.0 °F 55.4 °F 64% 30.33 in 10.0 mi Calm Calm - N/A   Clear
11:35 AM 68.0 °F 53.6 °F 60% 30.32 in 10.0 mi Calm Calm - N/A   Clear
11:55 AM 69.8 °F 51.8 °F 53% 30.31 in 10.0 mi Calm Calm - N/A   Clear
12:15 PM 71.6 °F 50.0 °F 46% 30.30 in 7.0 mi ENE 3.5 mph - N/A   Clear
12:35 PM 71.6 °F 46.4 °F 41% 30.28 in 5.0 mi ESE 3.5 mph - N/A   Haze
12:55 PM 71.6 °F 46.4 °F 41% 30.27 in 7.0 mi Calm Calm - N/A   Clear
1:15 PM 71.6 °F 44.6 °F 38% 30.26 in 7.0 mi SE 3.5 mph - N/A   Clear
1:35 PM 73.4 °F 44.6 °F 36% 30.24 in 7.0 mi South 6.9 mph - N/A   Clear
2:15 PM 75.2 °F 46.4 °F 36% 30.23 in 10.0 mi South 3.5 mph - N/A   Scattered Clouds
2:35 PM 75.2 °F 46.4 °F 36% 30.22 in 7.0 mi SSE 8.1 mph - N/A   Scattered Clouds
2:55 PM 75.2 °F 46.4 °F 36% 30.20 in 5.0 mi ESE 3.5 mph - N/A   Haze
3:15 PM 73.4 °F 44.6 °F 36% 30.20 in 7.0 mi SSW 5.8 mph - N/A   Clear
3:35 PM 75.2 °F 44.6 °F 34% 30.20 in 7.0 mi South 8.1 mph - N/A   Clear
3:55 PM 73.4 °F 44.6 °F 36% 30.20 in 7.0 mi SW 4.6 mph - N/A   Clear
4:15 PM 73.4 °F 46.4 °F 38% 30.20 in 7.0 mi SW 3.5 mph - N/A   Clear
4:35 PM 71.6 °F 44.6 °F 38% 30.20 in 5.0 mi West 4.6 mph - N/A   Haze
4:55 PM 69.8 °F 44.6 °F 40% 30.21 in 7.0 mi West 3.5 mph - N/A   Clear
5:15 PM 69.8 °F 44.6 °F 40% 30.22 in 7.0 mi WSW 4.6 mph - N/A   Clear
5:35 PM 68.0 °F 42.8 °F 40% 30.22 in 10.0 mi West 3.5 mph - N/A   Clear
5:55 PM 64.4 °F 42.8 °F 45% 30.22 in 10.0 mi Calm Calm - N/A   Clear
6:15 PM 64.4 °F 42.8 °F 45% 30.22 in 10.0 mi Calm Calm - N/A   Clear
6:35 PM 62.6 °F 42.8 °F 48% 30.22 in 10.0 mi Calm Calm - N/A   Clear
6:55 PM 60.8 °F 42.8 °F 52% 30.23 in 10.0 mi Calm Calm - N/A   Clear
7:15 PM 59.0 °F 44.6 °F 59% 30.24 in 10.0 mi Calm Calm - N/A   Clear
7:35 PM 57.2 °F 44.6 °F 63% 30.24 in 10.0 mi Calm Calm - N/A   Clear
7:55 PM 55.4 °F 44.6 °F 67% 30.24 in 10.0 mi Calm Calm - N/A   Clear
8:15 PM 53.6 °F 44.6 °F 72% 30.23 in 10.0 mi Calm Calm - N/A   Clear
8:35 PM 51.8 °F 44.6 °F 76% 30.23 in 10.0 mi Calm Calm - N/A   Clear
8:55 PM 50.0 °F 44.6 °F 82% 30.23 in 10.0 mi Calm Calm - N/A   Clear
9:15 PM 50.0 °F 42.8 °F 76% 30.23 in 10.0 mi Calm Calm - N/A   Clear
9:35 PM 48.2 °F 44.6 °F 87% 30.23 in 10.0 mi Calm Calm - N/A   Clear
9:55 PM 48.2 °F 44.6 °F 87% 30.23 in 10.0 mi Calm Calm - N/A   Clear
10:15 PM 46.4 °F 44.6 °F 93% 30.24 in 10.0 mi Calm Calm - N/A   Clear
10:35 PM 46.4 °F 44.6 °F 93% 30.24 in 7.0 mi Calm Calm - N/A   Clear
10:55 PM 44.6 °F 44.6 °F 100% 30.25 in 10.0 mi Calm Calm - N/A   Clear
11:15 PM 46.4 °F 44.6 °F 93% 30.25 in 7.0 mi Calm Calm - N/A   Clear
11:35 PM 44.6 °F 44.6 °F 100% 30.26 in 7.0 mi Calm Calm - N/A   Clear
11:55 PM 44.6 °F 44.6 °F 100% 30.26 in 7.0 mi Calm Calm - N/A   Clear